Location: Katzenstein
(51.7484°N, 10.2155°E)
Time: 23:55:55
(UTC+00:00)

SL-16 R/B - Pass Details

Date: 17 February 2020
Orbit: 842 x 846 km, 71.0° (Epoch: 04 April)

Event Time Altitude Azimuth Distance (km) Brightness Sun altitude
Exits shadow 03:12:16 16° 346° (NNW) 2,075 4.3 -31.0°
Drops below altitude 10° 03:14:50 10° 12° (NNE) 2,478 5.0 -30.6°
Sets 03:18:16 0° 33° (NNE) 3,416 6.1 -30.1°
